Sheldon, IA

11:25 AM CDT on October 01, 2016 (GMT -0500)
Sheldon Municipal

Weather History for KSHL - June, 2014

Change the Weather History Date:

Thursday, June 12, 2014

  Actual Average Record
Temperature  
Mean Temperature 61 °F -  
Max Temperature 71 °F 80 °F 97 °F (1956)
Min Temperature 51 °F 58 °F 42 °F (2006)
Degree Days  
Heating Degree Days 4    
Growing Degree Days 11 (Base 50)    
Moisture  
Dew Point 45 °F    
Average Humidity 56    
Maximum Humidity 88    
Minimum Humidity 28    
Precipitation  
Precipitation 0.00 in - - ()
Sea Level Pressure  
Sea Level Pressure 29.96 in    
Wind  
Wind Speed 15 mph (NW)    
Max Wind Speed 25 mph    
Max Gust Speed 36 mph    
Visibility 10 miles    
Events      
Averages and records for this station are not official NWS values.
T = Trace of Precipitation, MM = Missing Value Source: NWS Daily Summary

Daily Weather History Graph

Daily Weather History Graph

Search for Another Location

Airport or City:

Trip Planner

Search our weather history database for the weather conditions in past years. The results will help you decide how hot, cold, wet, or windy it might be!

Date:

Astronomy

Jun. 12, 2014 Rise Set
Actual Time 5:42 AM CDT 9:03 PM CDT
Civil Twilight 5:07 AM CDT 9:39 PM CDT
Nautical Twilight 4:21 AM CDT 10:25 PM CDT
Astronomical Twilight 3:24 AM CDT 11:22 PM CDT
Moon 8:34 PM CDT (6/12) 5:27 AM CDT (6/12)
Length of Visible Light 16h 31m
Length of Day
15h 20m
Full, 100% of the Moon is Illuminated
Jun 12
Full
Jun 12
Full
Jun 19
Last Quarter
Jun 27
New
Jul 5
First Quarter

Hourly Weather History & Observations

Time (CDT) Temp. Dew Point Humidity Pressure Visibility Wind Dir Wind Speed Gust Speed Precip Events Conditions
12:15 AM 64.4 °F 53.6 °F 68% 29.82 in 10.0 mi WNW 12.7 mph 18.4 mph N/A   Mostly Cloudy
12:35 AM 62.6 °F 55.4 °F 77% 29.83 in 10.0 mi WNW 13.8 mph - N/A   Scattered Clouds
12:55 AM 62.6 °F 55.4 °F 77% 29.84 in 10.0 mi West 15.0 mph - N/A   Clear
1:15 AM 62.6 °F 55.4 °F 77% 29.84 in 10.0 mi WNW 17.3 mph 25.3 mph N/A   Partly Cloudy
1:35 AM 62.6 °F 55.4 °F 77% 29.84 in 10.0 mi WNW 18.4 mph 24.2 mph N/A   Mostly Cloudy
1:55 AM 60.8 °F 55.4 °F 82% 29.84 in 10.0 mi WNW 12.7 mph - N/A   Mostly Cloudy
2:15 AM 60.8 °F 55.4 °F 82% 29.84 in 10.0 mi WNW 13.8 mph 19.6 mph N/A   Mostly Cloudy
2:35 AM 59.0 °F 55.4 °F 88% 29.85 in 10.0 mi NW 10.4 mph 18.4 mph N/A   Mostly Cloudy
2:55 AM 59.0 °F 55.4 °F 88% 29.85 in 10.0 mi NW 13.8 mph - N/A   Partly Cloudy
3:15 AM 59.0 °F 55.4 °F 88% 29.86 in 10.0 mi NW 12.7 mph - N/A   Partly Cloudy
3:35 AM 59.0 °F 53.6 °F 82% 29.87 in 10.0 mi NW 11.5 mph - N/A   Mostly Cloudy
3:55 AM 57.2 °F 51.8 °F 82% 29.87 in 10.0 mi NW 16.1 mph 21.9 mph N/A   Overcast
4:15 AM 57.2 °F 51.8 °F 82% 29.88 in 10.0 mi NNW 15.0 mph - N/A   Scattered Clouds
4:35 AM 57.2 °F 50.0 °F 77% 29.89 in 10.0 mi NNW 11.5 mph 21.9 mph N/A   Clear
5:15 AM 55.4 °F 48.2 °F 77% 29.91 in 10.0 mi NNW 16.1 mph - N/A   Clear
5:35 AM 55.4 °F 48.2 °F 77% 29.92 in 10.0 mi NNW 16.1 mph 25.3 mph N/A   Clear
5:55 AM 53.6 °F 48.2 °F 82% 29.93 in 10.0 mi NW 12.7 mph 19.6 mph N/A   Clear
6:35 AM 53.6 °F 48.2 °F 82% 29.97 in 10.0 mi NW 9.2 mph - N/A   Clear
6:55 AM 55.4 °F 50.0 °F 82% 29.96 in 10.0 mi WNW 11.5 mph - N/A   Clear
7:15 AM 55.4 °F 50.0 °F 82% 29.96 in 10.0 mi WNW 10.4 mph 17.3 mph N/A   Clear
7:35 AM 57.2 °F 50.0 °F 77% 29.95 in 10.0 mi NW 18.4 mph 25.3 mph N/A   Clear
7:55 AM 59.0 °F 50.0 °F 72% 29.94 in 10.0 mi NW 20.7 mph - N/A   Clear
8:35 AM 59.0 °F 50.0 °F 72% 29.97 in 10.0 mi WNW 19.6 mph 26.5 mph N/A   Mostly Cloudy
8:55 AM 59.0 °F 50.0 °F 72% 29.98 in 10.0 mi NW 17.3 mph 25.3 mph N/A   Overcast
9:35 AM 59.0 °F 50.0 °F 72% 29.99 in 10.0 mi WNW 19.6 mph - N/A   Overcast
9:55 AM 60.8 °F 50.0 °F 68% 29.99 in 10.0 mi WNW 13.8 mph 20.7 mph N/A   Mostly Cloudy
10:15 AM 60.8 °F 50.0 °F 68% 29.99 in 10.0 mi NW 19.6 mph - N/A   Mostly Cloudy
10:35 AM 60.8 °F 48.2 °F 63% 29.99 in 10.0 mi NW 12.7 mph 20.7 mph N/A   Mostly Cloudy
10:55 AM 64.4 °F 46.4 °F 52% 29.99 in 10.0 mi NW 20.7 mph 27.6 mph N/A   Mostly Cloudy
11:15 AM 62.6 °F 48.2 °F 59% 29.99 in 10.0 mi WNW 18.4 mph - N/A   Mostly Cloudy
11:35 AM 64.4 °F 46.4 °F 52% 29.99 in 10.0 mi NW 17.3 mph 26.5 mph N/A   Overcast
11:55 AM 64.4 °F 46.4 °F 52% 30.00 in 10.0 mi NW 15.0 mph 23.0 mph N/A   Mostly Cloudy
12:15 PM 64.4 °F 46.4 °F 52% 30.00 in 10.0 mi NW 18.4 mph 25.3 mph N/A   Overcast
12:35 PM 66.2 °F 44.6 °F 46% 30.00 in 10.0 mi NW 20.7 mph 27.6 mph N/A   Mostly Cloudy
1:15 PM 66.2 °F 44.6 °F 46% 29.99 in 10.0 mi NW 17.3 mph 25.3 mph N/A   Mostly Cloudy
1:35 PM 66.2 °F 44.6 °F 46% 29.99 in 10.0 mi NW 19.6 mph 27.6 mph N/A   Mostly Cloudy
1:55 PM 68.0 °F 44.6 °F 43% 29.99 in 10.0 mi NNW 20.7 mph 29.9 mph N/A   Mostly Cloudy
2:15 PM 68.0 °F 44.6 °F 43% 29.98 in 10.0 mi NNW 19.6 mph 26.5 mph N/A   Scattered Clouds
2:35 PM 69.8 °F 42.8 °F 38% 29.98 in 10.0 mi NW 20.7 mph 27.6 mph N/A   Partly Cloudy
2:55 PM 69.8 °F 42.8 °F 38% 29.97 in 10.0 mi NW 25.3 mph - N/A   Clear
3:15 PM 69.8 °F 41.0 °F 35% 29.98 in 10.0 mi NNW 21.9 mph 33.4 mph N/A   Clear
3:35 PM 71.6 °F 41.0 °F 33% 29.97 in 10.0 mi NNW 18.4 mph 35.7 mph N/A   Clear
3:55 PM 69.8 °F 39.2 °F 33% 29.97 in 10.0 mi NNW 23.0 mph 29.9 mph N/A   Clear
4:15 PM 69.8 °F 39.2 °F 33% 29.98 in 10.0 mi NW 20.7 mph 29.9 mph N/A   Clear
4:35 PM 71.6 °F 37.4 °F 29% 29.98 in 10.0 mi NNW 19.6 mph 27.6 mph N/A   Clear
4:55 PM 69.8 °F 37.4 °F 31% 29.98 in 10.0 mi NNW 21.9 mph 28.8 mph N/A   Clear
5:15 PM 69.8 °F 35.6 °F 28% 29.98 in 10.0 mi NNW 19.6 mph 31.1 mph N/A   Clear
5:35 PM 69.8 °F 37.4 °F 31% 29.99 in 10.0 mi NNW 17.3 mph 25.3 mph N/A   Clear
5:55 PM 69.8 °F 35.6 °F 28% 29.99 in 10.0 mi NNW 20.7 mph 28.8 mph N/A   Clear
6:15 PM 69.8 °F 37.4 °F 31% 29.99 in 10.0 mi North 23.0 mph 29.9 mph N/A   Clear
6:35 PM 69.8 °F 35.6 °F 28% 29.99 in 10.0 mi NNW 17.3 mph 25.3 mph N/A   Clear
6:55 PM 69.8 °F 35.6 °F 28% 30.00 in 10.0 mi NNW 19.6 mph 31.1 mph N/A   Clear
7:15 PM 68.0 °F 35.6 °F 30% 30.00 in 10.0 mi NNW 18.4 mph 26.5 mph N/A   Clear
7:35 PM 68.0 °F 37.4 °F 33% 30.01 in 10.0 mi NNW 16.1 mph 24.2 mph N/A   Clear
7:55 PM 68.0 °F 35.6 °F 30% 30.01 in 10.0 mi NNW 15.0 mph 23.0 mph N/A   Clear
8:15 PM 66.2 °F 35.6 °F 32% 30.02 in 10.0 mi North 13.8 mph 20.7 mph N/A   Clear
8:35 PM 64.4 °F 35.6 °F 34% 30.02 in 10.0 mi North 12.7 mph - N/A   Clear
8:55 PM 64.4 °F 35.6 °F 34% 30.03 in 10.0 mi North 13.8 mph - N/A   Clear
9:15 PM 60.8 °F 37.4 °F 42% 30.04 in 10.0 mi North 10.4 mph - N/A   Clear
9:35 PM 60.8 °F 37.4 °F 42% 30.04 in 10.0 mi North 9.2 mph - N/A   Clear
9:55 PM 57.2 °F 39.2 °F 51% 30.05 in 10.0 mi North 8.1 mph - N/A   Clear
10:15 PM 55.4 °F 39.2 °F 54% 30.06 in 10.0 mi North 9.2 mph - N/A   Clear
10:35 PM 55.4 °F 39.2 °F 54% 30.06 in 10.0 mi North 9.2 mph - N/A   Clear
10:55 PM 55.4 °F 39.2 °F 54% 30.06 in 10.0 mi North 9.2 mph - N/A   Clear
11:15 PM 53.6 °F 39.2 °F 58% 30.06 in 10.0 mi North 5.8 mph - N/A   Clear
11:35 PM 51.8 °F 39.2 °F 62% 30.07 in 10.0 mi North 4.6 mph - N/A   Clear
11:55 PM 51.8 °F 39.2 °F 62% 30.07 in 10.0 mi North 5.8 mph - N/A   Clear